Salina, KS

11:51 AM CST on February 22, 2017 (GMT -0600)
Salina Municipal

Weather History for KSLN - October, 2010

Change the Weather History Date:

Tuesday, October 12, 2010

  Actual Average Record
Temperature  
Mean Temperature 64 °F 59 °F  
Max Temperature 76 °F 70 °F 94 °F (1899)
Min Temperature 52 °F 47 °F 21 °F (1917)
Degree Days  
Heating Degree Days 1 7  
Month to date heating degree days 55 72  
Since 1 July heating degree days 71 124  
Cooling Degree Days 0 1  
Month to date cooling degree days 16 23  
Year to date cooling degree days 1866 1635  
Growing Degree Days 13 (Base 50)    
Moisture  
Dew Point 53 °F    
Average Humidity 75    
Maximum Humidity 100    
Minimum Humidity 49    
Precipitation  
Precipitation 0.01 in 0.08 in 1.14 in (2007)
Month to date precipitation 0.18 0.99  
Year to date precipitation 24.37 28.03  
Sea Level Pressure  
Sea Level Pressure 30.04 in    
Wind  
Wind Speed 11 mph (NW)    
Max Wind Speed 24 mph    
Max Gust Speed 30 mph    
Visibility 8 miles    
Events Fog    
T = Trace of Precipitation, MM = Missing Value Source: NWS Daily Summary

Daily Weather History Graph

Daily Weather History Graph

Search for Another Location

Airport or City:

Trip Planner

Search our weather history database for the weather conditions in past years. The results will help you decide how hot, cold, wet, or windy it might be!

Date:

Astronomy

Oct. 12, 2010 Rise Set
Actual Time 7:36 AM CDT 6:56 PM CDT
Civil Twilight 7:10 AM CDT 7:23 PM CDT
Nautical Twilight 6:39 AM CDT 7:54 PM CDT
Astronomical Twilight 6:08 AM CDT 8:24 PM CDT
Moon 1:07 PM CDT (10/12) 10:37 PM CDT (10/12)
Length of Visible Light 12h 12m
Length of Day
11h 19m
Waxing Crescent, 29% of the Moon is Illuminated
Oct 12
Waxing Crescent
Oct 14
First Quarter
Oct 22
Full
Oct 30
Last Quarter
Nov 5
New

Hourly Weather History & Observations

Time (CDT) Temp. Dew Point Humidity Pressure Visibility Wind Dir Wind Speed Gust Speed Precip Events Conditions
12:53 AM 53.1 °F 53.1 °F 100% 29.93 in 1.5 mi Calm Calm - N/A   Clear
12:58 AM 51.8 °F 51.8 °F 100% 29.93 in 0.5 mi Calm Calm - N/A Fog Fog
1:26 AM 51.8 °F 51.8 °F 100% 29.94 in 0.2 mi West 4.6 mph - N/A Fog Fog
1:44 AM 51.8 °F 51.8 °F 100% 29.93 in 0.5 mi West 6.9 mph - N/A Fog Fog
1:51 AM 51.8 °F 51.8 °F 100% 29.94 in 1.2 mi West 6.9 mph - N/A   Scattered Clouds
1:53 AM 52.0 °F 52.0 °F 100% 29.93 in 1.8 mi West 6.9 mph - N/A   Partly Cloudy
1:57 AM 51.8 °F 51.8 °F 100% 29.94 in 3.0 mi West 5.8 mph - N/A   Partly Cloudy
2:53 AM 53.1 °F 53.1 °F 100% 29.94 in 6.0 mi WNW 5.8 mph - N/A   Mostly Cloudy
3:53 AM 55.0 °F 54.0 °F 96% 29.94 in 8.0 mi WNW 8.1 mph - N/A   Overcast
4:53 AM 55.0 °F 54.0 °F 96% 29.94 in 9.0 mi NNW 3.5 mph - N/A   Overcast
5:53 AM 55.9 °F 54.0 °F 93% 29.96 in 10.0 mi NW 5.8 mph - N/A   Overcast
6:53 AM 55.9 °F 54.0 °F 93% 29.98 in 10.0 mi NW 8.1 mph - N/A   Mostly Cloudy
7:53 AM 55.0 °F 53.1 °F 93% 29.99 in 10.0 mi NNW 3.5 mph - N/A   Mostly Cloudy
8:53 AM 57.0 °F 54.0 °F 89% 30.02 in 10.0 mi NW 6.9 mph - N/A   Overcast
9:53 AM 60.1 °F 55.0 °F 83% 30.04 in 10.0 mi NW 10.4 mph - N/A   Scattered Clouds
10:53 AM 64.0 °F 55.0 °F 73% 30.06 in 10.0 mi NW 13.8 mph - N/A   Partly Cloudy
11:53 AM 69.1 °F 55.9 °F 63% 30.08 in 10.0 mi NNW 11.5 mph - N/A   Clear
12:53 PM 72.0 °F 55.9 °F 57% 30.07 in 10.0 mi North 12.7 mph - N/A   Clear
1:53 PM 73.9 °F 55.0 °F 52% 30.07 in 10.0 mi NNW 9.2 mph 20.7 mph N/A   Clear
2:53 PM 75.0 °F 55.9 °F 51% 30.06 in 10.0 mi NNW 16.1 mph 24.2 mph N/A   Partly Cloudy
3:53 PM 75.0 °F 55.0 °F 50% 30.07 in 10.0 mi NNW 18.4 mph - 0.01 in   Scattered Clouds
4:53 PM 73.9 °F 54.0 °F 50% 30.08 in 10.0 mi NNW 18.4 mph - N/A   Partly Cloudy
5:53 PM 73.0 °F 53.1 °F 49% 30.09 in 10.0 mi NNW 19.6 mph 28.8 mph N/A   Clear
6:53 PM 69.1 °F 51.1 °F 53% 30.12 in 10.0 mi North 18.4 mph - N/A   Clear
7:53 PM 66.9 °F 50.0 °F 54% 30.15 in 10.0 mi North 13.8 mph - N/A   Partly Cloudy
8:53 PM 64.0 °F 48.9 °F 58% 30.18 in 10.0 mi NNW 10.4 mph - N/A   Clear
9:53 PM 61.0 °F 48.9 °F 64% 30.21 in 10.0 mi NNW 8.1 mph - N/A   Scattered Clouds
10:53 PM 59.0 °F 46.9 °F 64% 30.25 in 10.0 mi NNW 12.7 mph - N/A   Clear
11:53 PM 59.0 °F 45.0 °F 60% 30.26 in 10.0 mi North 12.7 mph - N/A   Overcast